Content
SEND FEEDBACK

Daily
Averages
Monthly
Summary
Canada

QUEBEC CITY, QUEBEC


Home > North America > Canada > Quebec
Elevation: 239 feet     Latitude: 46 48N     Longitude: 071 23W

WEATHER
 
SELECT A DAY
Number of Records: 197,121;   Date Range: 6/30/96 - 11/25/14
 
SHARE

PRINT THIS DATA

[ ← Previous Day ]
WEATHER ALMANAC - MAY 12, 2013
[ Next Day → ]
[ °C ]   °F
Weather ElementAverageHighLow
Temperature51.4 °F59 °F (12:00 pm)42.8 °F (11:00 pm)
Dewpoint37.1 °F50 °F (11:00 am) (7:00 pm)
Humidity72.8 %95 % (5:00 am)37 % (8:00 pm)
Wind Speed8.2 mph25.3 mph (2:00 pm)
Wind Gust33.4 mph (2:00 pm)
Weather ElementAverage
Visibility24.5 mi
Wind DirectionSSW (204.4 °)

Weather ElementTotal
Precipitation---
Heating Degree Days14.1 (Base 65)
Growing Degree Days0.9 (Base 50)
Averaged from 36 records on May 12, 2013
WEATHER CONDITIONS BREAKOUT
WIND DIRECTION BREAKOUT
WEATHER BY HOUR - MAY 12, 2013
[ °C ]   °F
Local TimeTemperatureDewpointHumidityBarometerVisibilityWind DirectionWind SpeedGust SpeedPrecipitationEventsConditions
1:00 AM51.8 °F48.2 °F88 %29.67 in15.0 miWSW (250°)8.1 mphOvercast
2:00 AM50.0 °F49.0 °F93 %29.66 inWSW (250°)3.5 mph
2:00 AM50.0 °F48.2 °F94 %29.68 in15.0 miWest (260°)6.9 mphOvercast
3:00 AM50.0 °F46.4 °F87 %29.66 in15.0 miWest (260°)5.8 mphOvercast
4:00 AM48.2 °F46.4 °F93 %29.66 in15.0 miWest (260°)3.5 mphOvercast
5:00 AM47.0 °F46.0 °F95 %29.63 inWest (260°)1.2 mph
5:00 AM48.2 °F46.4 °F93 %29.65 in15.0 miWSW (240°)3.5 mphOvercast
6:00 AM48.2 °F46.4 °F93 %29.65 in30.0 miSW (230°)3.5 mphOvercast
7:00 AM50.0 °F48.2 °F94 %29.65 in30.0 miSouth (170°)2.3 mphOvercast
7:14 AM50.0 °F0.0 °F30.0 miESE (120°)3.5 mphOvercast
7:43 AM50.0 °F0.0 °F30.0 miCalmMostly Cloudy
8:00 AM52.0 °F49.0 °F84 %29.62 inSE (130°)2.3 mph
8:00 AM51.8 °F48.2 °F88 %29.63 in30.0 miCalmMostly Cloudy
8:12 AM51.8 °F0.0 °F30.0 miSE (140°)5.8 mphOvercast
9:00 AM51.8 °F46.4 °F82 %29.64 in30.0 miCalmOvercast
9:32 AM51.8 °F0.0 °F15.0 miCalmRainLight Rain
10:00 AM51.8 °F48.2 °F88 %29.62 in15.0 miCalmRainLight Rain
10:17 AM51.8 °F0.0 °F20.0 miNNW (330°)3.5 mphOvercast
11:00 AM55.4 °F50.0 °F82 %29.60 in25.0 miWNW (290°)2.3 mphMostly Cloudy
11:00 AM54.0 °F50.0 °F80 %29.58 inNNW (330°)1.2 mph
12:00 PM59.0 °F50.0 °F72 %29.59 in25.0 miSSW (200°)4.6 mphMostly Cloudy
1:00 PM57.2 °F48.2 °F72 %29.57 in30.0 miWest (260°)5.8 mphMostly Cloudy
2:00 PM58.0 °F48.0 °F59 %29.54 inWSW (240°)11.5 mph
2:00 PM55.4 °F46.4 °F72 %29.56 in30.0 miWSW (240°)25.3 mph33.4 mphMostly Cloudy
3:00 PM55.4 °F46.4 °F72 %29.57 in30.0 miWSW (240°)24.2 mph31.1 mphMostly Cloudy
4:00 PM55.4 °F46.4 °F72 %29.57 in30.0 miWSW (250°)12.7 mphMostly Cloudy
5:00 PM55.4 °F39.2 °F54 %29.57 in30.0 miWSW (240°)24.2 mphMostly Cloudy
5:00 PM55.0 °F40.0 °F45 %29.55 inWSW (240°)11.5 mph
6:00 PM51.8 °F33.8 °F50 %29.60 in30.0 miWSW (250°)19.6 mph28.8 mphMostly Cloudy
7:00 PM51.8 °F32.0 °F47 %29.60 in30.0 miSW (230°)21.9 mph27.6 mphMostly Cloudy
8:00 PM51.0 °F33.0 °F37 %29.61 inWSW (240°)10.4 mph
8:00 PM50.0 °F32.0 °F50 %29.62 in30.0 miWSW (240°)21.9 mphScattered Clouds
9:00 PM48.2 °F28.4 °F46 %29.63 in30.0 miWSW (240°)18.4 mphScattered Clouds
10:00 PM46.4 °F30.2 °F53 %29.65 in15.0 miWSW (250°)12.7 mphPartly Cloudy
11:00 PM43.0 °F33.0 °F57 %29.63 inWSW (240°)5.8 mph
11:00 PM42.8 °F32.0 °F66 %29.64 in15.0 miWSW (240°)8.1 mphPartly Cloudy
Hourly data recorded from CYQB, located miles away from Quebec City, Quebec







STORIES FROM OUR PARTNERS